Torna al catalogo

FENGYUN 1C DEB

AttivoPO
NORAD 29738·DEBRIS·🇨🇳 China

Lanciato May 10, 1999 da Taiyuan Satellite Launch Center

Loading…

Prossimi Passaggi (prossime 24 ore)

TLE

AggiornatoSource: Space-Track

Epoca: Sep 14, 2026, 06:25 UTC

1 29738U 99025AC  26257.26797158 -.00000222  00000-0 -25870-3 0  9994
2 29738  99.4190  19.5057 0849816  55.5134 312.3282 12.62476774896920

Traccia FENGYUN 1C DEB in tempo reale con AllMySat

Download on the App Store